Vitoria, Spain

4:35 AM CEST on September 23, 2017 (GMT +0200)
Foronda

Weather History for LEVT - January, 2014

Change the Weather History Date:

Sunday, January 19, 2014

  Actual Average Record
Temperature  
Mean Temperature 36 °F -  
Max Temperature 43 °F 49 °F 62 °F (2007)
Min Temperature 30 °F 32 °F 23 °F (2017)
Degree Days  
Heating Degree Days 28    
Moisture  
Dew Point 34 °F    
Average Humidity 95    
Maximum Humidity 100    
Minimum Humidity 78    
Precipitation  
Precipitation 0.01 in - - ()
Sea Level Pressure  
Sea Level Pressure 29.51 in    
Wind  
Wind Speed 2 mph ()    
Max Wind Speed 9 mph    
Max Gust Speed -    
Visibility 4.1 miles    
Events Fog , Rain    
Averages and records for this station are not official NWS values.
T = Trace of Precipitation, MM = Missing Value Source: Averaged Metar Reports

Daily Weather History Graph

Daily Weather History Graph

Search for Another Location

Airport or City:

Trip Planner

Search our weather history database for the weather conditions in past years. The results will help you decide how hot, cold, wet, or windy it might be!

Date:

Astronomy

Jan. 19, 2014 Rise Set
Actual Time 8:36 AM CET 6:06 PM CET
Civil Twilight 8:05 AM CET 6:37 PM CET
Nautical Twilight 7:31 AM CET 7:12 PM CET
Astronomical Twilight 6:57 AM CET 7:46 PM CET
Moon 9:37 PM CET (1/19) 9:54 AM CET (1/19)
Length of Visible Light 10h 31m
Length of Day
9h 29m
Waning Gibbous, 91% of the Moon is Illuminated
Jan 19
Waning Gibbous
Jan 24
Last Quarter
Jan 30
New
Feb 6
First Quarter
Feb 15
Full

Hourly Weather History & Observations

Time (CET) Temp. Windchill Dew Point Humidity Pressure Visibility Wind Dir Wind Speed Gust Speed Precip Events Conditions
12:00 AM 35.6 °F - 35.6 °F 100% 29.36 in 6.2 mi NW 1.2 mph - N/A   Scattered Clouds
12:30 AM 33.8 °F - 33.8 °F 100% 29.36 in 6.2 mi South 1.2 mph - N/A   Scattered Clouds
1:00 AM 33.8 °F - 32.0 °F 93% 29.36 in 6.2 mi Calm Calm - N/A   Partly Cloudy
1:30 AM 32.0 °F - 32.0 °F 100% 29.36 in 5.0 mi Calm Calm - N/A   Partly Cloudy
2:00 AM 33.8 °F - 33.8 °F 100% 29.36 in 5.0 mi Calm Calm - N/A   Scattered Clouds
2:30 AM 33.8 °F - 33.8 °F 100% 29.36 in 5.0 mi Variable 1.2 mph - N/A   Scattered Clouds
3:00 AM 32.0 °F - 32.0 °F 100% 29.36 in 3.1 mi WSW 1.2 mph - N/A   Scattered Clouds
3:30 AM 32.0 °F - 32.0 °F 100% 29.36 in 3.1 mi Calm Calm - N/A Fog Patches of Fog
4:00 AM 32.0 °F - 32.0 °F 100% 29.36 in 3.1 mi Variable 2.3 mph - N/A Fog Patches of Fog
4:30 AM 33.8 °F - 33.8 °F 100% 29.36 in 0.2 mi Calm Calm - N/A Fog Fog
5:00 AM 33.8 °F - 33.8 °F 100% 29.36 in 0.2 mi West 2.3 mph - N/A Fog Fog
5:30 AM 33.8 °F - 33.8 °F 100% 29.36 in 0.2 mi Variable 1.2 mph - N/A Fog Fog
6:00 AM 33.8 °F 29.6 °F 33.8 °F 100% 29.36 in 0.2 mi SSW 4.6 mph - N/A Fog Fog
6:30 AM 32.0 °F 28.7 °F 32.0 °F 100% 29.39 in 0.2 mi West 3.5 mph - N/A Fog Light Freezing Fog
7:00 AM 31 °F - 31 °F 100% 29.46 in 0 mi Calm Calm - - Fog Heavy Fog
7:00 AM 32.0 °F - 32.0 °F 100% 29.39 in 0.2 mi SW 2.3 mph - N/A Fog Light Freezing Fog
7:30 AM 32.0 °F - 32.0 °F 100% 29.39 in 0.2 mi Calm Calm - N/A Fog Light Freezing Fog
8:00 AM 30.2 °F - 30.2 °F 100% 29.42 in 0.2 mi NE 1.2 mph - N/A Fog Light Freezing Fog
8:30 AM 30.2 °F 26.7 °F 30.2 °F 100% 29.42 in 0.2 mi NE 3.5 mph - N/A Fog Light Freezing Fog
9:00 AM 30.2 °F - 30.2 °F 100% 29.42 in 0.2 mi Calm Calm - N/A Fog Light Freezing Fog
9:30 AM 30.2 °F - 30.2 °F 100% 29.44 in 0.1 mi Calm Calm - N/A Fog Light Freezing Fog
10:00 AM 31 °F - 31 °F 100% 29.55 in 0 mi Calm Calm - - Fog Heavy Fog
10:00 AM 30.2 °F - 30.2 °F 100% 29.47 in 0.1 mi Calm Calm - N/A Fog Light Freezing Fog
10:30 AM 30.2 °F - 30.2 °F 100% 29.47 in 0.1 mi Calm Calm - N/A Fog Light Freezing Fog
11:00 AM 32.0 °F - 32.0 °F 100% 29.50 in 0.2 mi Calm Calm - N/A Fog Light Freezing Fog
11:30 AM 35.6 °F - 35.6 °F 100% 29.50 in 0.3 mi Calm Calm - N/A Fog Fog
11:45 AM 35.6 °F - 35.6 °F 100% 29.50 in 3.7 mi Calm Calm - N/A   Mostly Cloudy
12:00 PM 37.4 °F - 37.4 °F 100% 29.50 in 6.2 mi Calm Calm - N/A   Mostly Cloudy
12:30 PM 41.0 °F 35.8 °F 41.0 °F 100% 29.50 in 6.2 mi WNW 8.1 mph - N/A   Mostly Cloudy
1:00 PM 42 °F - 37 °F 78% 29.57 in 9 mi WNW 8.1 mph - -   Partly Cloudy
1:00 PM 41.0 °F 36.4 °F 39.2 °F 93% 29.53 in 6.2 mi WNW 6.9 mph - N/A   Mostly Cloudy
1:30 PM 39.2 °F 33.6 °F 37.4 °F 93% 29.53 in 6.2 mi WNW 8.1 mph - N/A Rain Light Rain
2:00 PM 39.2 °F 33.0 °F 37.4 °F 93% 29.53 in 5.6 mi WNW 9.2 mph - N/A   Overcast
2:30 PM 39.2 °F - 37.4 °F 93% 29.53 in 5.6 mi Variable 1.2 mph - N/A   Overcast
3:00 PM 41.0 °F 37.1 °F 37.4 °F 87% 29.56 in 6.2 mi NW 5.8 mph - N/A   Overcast
3:30 PM 41.0 °F - 37.4 °F 87% 29.56 in 6.2 mi Variable 1.2 mph - N/A   Mostly Cloudy
4:00 PM 41 °F - 37 °F 82% 29.63 in 9 mi WNW 3.5 mph - -   Partly Cloudy
4:00 PM 41.0 °F - 37.4 °F 87% 29.59 in 6.2 mi Variable 2.3 mph - N/A   Mostly Cloudy
4:30 PM 41.0 °F 39.0 °F 37.4 °F 87% 29.59 in 6.2 mi NNW 3.5 mph - N/A   Mostly Cloudy
5:00 PM 41.0 °F 38.0 °F 37.4 °F 87% 29.59 in 6.2 mi NW 4.6 mph - N/A   Mostly Cloudy
5:30 PM 41.0 °F - 37.4 °F 87% 29.62 in 6.2 mi Variable 1.2 mph - N/A   Mostly Cloudy
6:00 PM 39.2 °F 35.0 °F 37.4 °F 93% 29.62 in 6.2 mi WNW 5.8 mph - N/A   Mostly Cloudy
6:30 PM 39.2 °F 33.6 °F 35.6 °F 87% 29.65 in 6.2 mi NW 8.1 mph - N/A Rain Light Rain
7:00 PM 38 °F - 35 °F 84% 29.71 in 9 mi WNW 8.1 mph - - Rain Light Drizzle
7:00 PM 37.4 °F 31.4 °F 35.6 °F 93% 29.65 in 6.2 mi WNW 8.1 mph - N/A   Mostly Cloudy
7:30 PM 37.4 °F 34.9 °F 35.6 °F 93% 29.68 in 6.2 mi WNW 3.5 mph - N/A   Scattered Clouds
8:00 PM 37.4 °F - 35.6 °F 93% 29.68 in 6.2 mi Variable 1.2 mph - N/A   Scattered Clouds
8:30 PM 35.6 °F 31.7 °F 33.8 °F 93% 29.68 in 6.2 mi West 4.6 mph - N/A   Scattered Clouds
9:00 PM 35.6 °F - 33.8 °F 93% 29.68 in 6.2 mi NW 2.3 mph - N/A   Partly Cloudy
9:30 PM 33.8 °F - 33.8 °F 100% 29.71 in 6.2 mi WSW 2.3 mph - N/A   Scattered Clouds
10:00 PM 33.8 °F 27.7 °F 33.8 °F 100% 29.71 in 6.2 mi WSW 6.9 mph - N/A   Scattered Clouds
10:30 PM 35.6 °F 30.7 °F 33.8 °F 93% 29.71 in 6.2 mi West 5.8 mph - N/A   Scattered Clouds
11:00 PM 35.6 °F 29.2 °F 33.8 °F 93% 29.74 in 6.2 mi WSW 8.1 mph - N/A   Scattered Clouds
11:30 PM 35.6 °F - 32.0 °F 87% 29.74 in 6.2 mi Variable 2.3 mph - N/A   Scattered Clouds